COMPASS 2 (42777 NORAD) Tracking and Keplerian Element Data

This shows tracking and keplerian element data for the satellite.

Feedback or suggestion? Click here.




ElementValue
Catalog42777
NameCOMPASS 2
Epoch Orbit33249
Epoch Day161.62085805
Epoch Year2023
RAAN207.9208
Inclination97.1353
Eccentricity0.0006277
Argument of Perigee200.0465
Mean Anonmoly160.0564
Mean Motion15.91118838
Decay Rate0.00531727
L11 42777U 17036N 23161.62085805 .00531727 11144-3 16912-2 0 9991
L22 42777 97.1353 207.9208 0006277 200.0465 160.0564 15.91118838332492



Live tracking and technical data element details for COMPASS 2 (NORAD 42777). COMPASS 2 can be tracked NOW for your location showing map with azimuth and elevation plus other details from your city location.







IsCatalogInMostPopularTable: catalog: 42777, numindb: 521
Update: records affected: 1



GetName: 42777 COMPASS 2

Hit Count: updated at: Fri, 16 May 2025 12:00:59 GMT